EW0199 Weather Reports


Display with metric or nautical units.
time (UTC)temp
F
wind
direction
speed
MPH
gust
MPH
rain 1hr
in
rain 24hr
in
rain mn
in
humidity
%
barometer
mb
20260831124403 68 136 0.0 1.0 0.00 0.06 0.05 99 1010.6
20260831123905 68 35 0.0 1.0 0.00 0.06 0.05 99 1010.5
20260831123412 68 302 0.0 0.0 0.00 0.06 0.05 99 1010.6
20260831122919 68 302 0.0 0.0 0.00 0.06 0.05 99 1010.6
20260831122429 68 302 0.0 1.0 0.00 0.06 0.05 99 1010.6
20260831121915 68 302 0.0 1.0 0.00 0.06 0.05 99 1010.5
20260831121420 68 251 0.0 1.0 0.00 0.06 0.05 99 1010.5
20260831120836 68 224 0.0 1.0 0.00 0.06 0.05 99 1010.5
20260831115836 68 31 0.0 1.0 0.00 0.06 0.05 99 1010.5
20260831115400 68 271 0.0 1.0 0.00 0.06 0.05 99 1010.6
20260831114909 68 271 0.0 1.0 0.00 0.06 0.05 99 1010.6
20260831114433 68 226 0.0 0.0 0.00 0.06 0.05 99 1010.6
20260831113436 68 226 0.0 0.0 0.00 0.06 0.05 99 1010.5
20260831112920 68 226 0.0 1.0 0.00 0.06 0.05 99 1010.4
20260831112344 68 226 0.0 1.0 0.00 0.06 0.05 99 1010.5
20260831111343 68 226 0.0 1.0 0.00 0.06 0.05 99 1010.6
20260831110851 68 14 0.0 3.0 0.00 0.06 0.05 99 1010.7
20260831110353 68 75 0.0 1.0 0.00 0.06 0.05 99 1010.7
20260831105858 68 75 0.0 1.0 0.00 0.06 0.05 98 1010.6
20260831105400 68 70 0.0 1.0 0.00 0.06 0.05 98 1010.7
20260831104902 68 191 0.0 0.0 0.00 0.06 0.05 98 1010.8
20260831104420 68 191 0.0 1.0 0.00 0.06 0.05 98 1010.7
20260831103920 68 191 0.0 1.0 0.00 0.06 0.05 98 1010.7
20260831103342 68 199 0.0 1.0 0.00 0.06 0.05 98 1010.8
20260831102851 68 200 0.0 1.0 0.00 0.06 0.05 98 1010.9
20260831102354 68 124 0.0 1.0 0.00 0.06 0.05 98 1010.9
20260831101918 68 180 0.0 1.0 0.00 0.06 0.05 98 1011.0
20260831101340 68 13 0.0 1.0 0.00 0.06 0.05 98 1011.0
20260831100852 68 24 0.0 1.0 0.00 0.06 0.05 98 1010.9
20260831100402 68 9 0.0 1.0 0.00 0.06 0.05 98 1010.9
20260831095922 68 193 0.0 1.0 0.00 0.06 0.05 98 1011.0
20260831095431 68 193 0.0 1.0 0.01 0.06 0.05 98 1010.9
20260831094836 68 115 0.0 1.0 0.05 0.06 0.05 98 1010.9
20260831094344 68 228 0.0 1.0 0.05 0.06 0.05 98 1010.8
20260831093905 68 94 0.0 1.0 0.05 0.06 0.05 98 1010.8
20260831092829 68 175 0.0 1.0 0.05 0.06 0.05 98 1010.9
20260831092353 68 174 0.0 1.0 0.05 0.06 0.05 98 1011.0
20260831091914 68 93 0.0 1.0 0.05 0.06 0.05 98 1010.9
20260831091336 68 62 0.0 1.0 0.05 0.06 0.05 98 1010.8
20260831090859 68 40 0.0 1.0 0.05 0.06 0.05 98 1010.9
20260831090345 68 316 0.0 2.0 0.05 0.07 0.05 98 1011.0
20260831085846 68 94 0.0 2.0 0.05 0.07 0.05 98 1011.0
20260831085412 68 100 0.0 1.0 0.04 0.06 0.04 98 1011.0
20260831084938 68 223 0.0 1.0 0.00 0.02 0.00 98 1011.3
20260831084336 68 305 0.0 1.0 0.00 0.02 0.00 98 1011.3
20260831083859 68 167 0.0 1.0 0.00 0.02 0.00 98 1011.4
20260831083428 68 167 0.0 1.0 0.00 0.02 0.00 98 1011.4
20260831082919 68 184 0.0 1.0 0.00 0.02 0.00 98 1011.5
20260831082346 68 184 0.0 1.0 0.00 0.02 0.00 98 1011.5
20260831081910 68 135 0.0 2.0 0.00 0.02 0.00 98 1011.6
20260831081333 68 161 0.0 2.0 0.00 0.02 0.00 98 1011.7
20260831080841 68 357 0.0 1.0 0.00 0.02 0.00 98 1011.6
20260831080350 68 45 0.0 1.0 0.00 0.03 0.00 98 1011.6
20260831075919 68 51 0.0 1.0 0.00 0.03 0.00 98 1011.7
20260831075340 68 274 0.0 0.0 0.00 0.03 0.00 98 1011.9
20260831074847 68 274 0.0 1.0 0.00 0.03 0.00 98 1011.8
20260831074403 68 274 0.0 1.0 0.00 0.03 0.00 98 1011.9
20260831073909 68 274 0.0 1.0 0.00 0.03 0.00 98 1011.9
20260831072846 67 89 0.0 1.0 0.00 0.03 0.00 98 1011.8
20260831072413 68 326 0.0 1.0 0.00 0.03 0.00 98 1011.8
20260831071922 68 326 0.0 0.0 0.00 0.03 0.00 98 1011.7
20260831071344 67 326 0.0 1.0 0.00 0.03 0.00 98 1011.7
20260831070343 67 316 0.0 1.0 0.00 0.03 0.00 98 1011.9
20260831065838 68 289 0.0 0.0 0.00 0.03 0.00 98 1012.1
20260831065325 68 290 0.0 0.0 0.00 0.03 0.00 98 1012.2
20260831064831 68 289 0.0 0.0 0.00 0.03 0.00 98 1012.2
20260831064337 68 289 0.0 0.0 0.00 0.03 0.00 98 1012.2
20260831063825 68 289 0.0 0.0 0.00 0.03 0.00 98 1012.3
20260831063332 67 289 0.0 0.0 0.00 0.03 0.00 98 1012.3
20260831062841 67 289 0.0 0.0 0.00 0.03 0.00 98 1012.5
20260831062347 67 289 0.0 0.0 0.00 0.03 0.00 98 1012.5
20260831061833 67 289 0.0 0.0 0.00 0.03 0.00 98 1012.5
20260831061339 67 289 0.0 0.0 0.00 0.03 0.00 98 1012.7
20260831060846 67 289 0.0 0.0 0.00 0.03 0.00 98 1012.7
20260831060330 67 289 0.0 0.0 0.00 0.03 0.03 98 1012.8
20260831055837 67 289 0.0 0.0 0.00 0.03 0.03 98 1012.7
20260831055323 67 289 0.0 0.0 0.00 0.03 0.03 98 1012.8
20260831054829 67 289 0.0 0.0 0.00 0.03 0.03 98 1012.9
20260831054356 67 289 0.0 1.0 0.00 0.03 0.03 98 1013.0
20260831053841 67 289 0.0 1.0 0.00 0.03 0.03 98 1013.1
20260831053327 67 289 0.0 0.0 0.00 0.03 0.03 98 1013.0
20260831052838 67 289 0.0 0.0 0.00 0.03 0.03 98 1012.9
20260831052344 67 289 0.0 0.0 0.00 0.03 0.03 98 1013.1
20260831051827 67 289 0.0 0.0 0.00 0.03 0.03 98 1013.1
20260831051333 67 289 0.0 0.0 0.00 0.03 0.03 98 1013.2
20260831050837 67 289 0.0 0.0 0.00 0.03 0.03 98 1013.1
20260831050324 67 289 0.0 0.0 0.00 0.03 0.03 98 1013.2
20260831045849 67 289 0.0 0.0 0.00 0.03 0.03 98 1013.2
20260831045355 67 289 0.0 0.0 0.00 0.03 0.03 98 1013.1
20260831044919 67 289 0.0 0.0 0.00 0.03 0.03 98 1013.0
20260831044340 67 289 0.0 1.0 0.00 0.03 0.03 98 1013.0
20260831043339 67 289 0.0 0.0 0.00 0.03 0.03 98 1012.6
20260831042908 67 289 0.0 0.0 0.00 0.03 0.03 97 1012.7
20260831041847 67 289 0.0 0.0 0.00 0.03 0.03 97 1012.7
20260831040845 68 289 0.0 1.0 0.00 0.03 0.03 97 1012.9
20260831035841 68 290 0.0 1.0 0.00 0.03 0.03 97 1012.4
20260831035410 68 314 0.0 0.0 0.01 0.03 0.03 97 1012.4
20260831034828 68 314 0.0 0.0 0.01 0.03 0.03 97 1012.7
20260831034351 68 314 0.0 0.0 0.01 0.03 0.03 97 1012.9
20260831033920 68 314 0.0 0.0 0.01 0.03 0.03 97 1012.9
20260831033426 68 314 0.0 0.0 0.01 0.03 0.03 97 1012.8
20260831032823 68 314 0.0 0.0 0.01 0.03 0.03 97 1012.9
20260831032355 68 314 0.0 0.0 0.01 0.03 0.03 97 1012.9
20260831031929 68 314 0.0 0.0 0.01 0.03 0.03 97 1012.9
20260831031328 68 314 0.0 0.0 0.01 0.03 0.03 97 1012.9
20260831030851 68 314 0.0 0.0 0.01 0.03 0.03 97 1013.0
20260831030419 68 314 0.0 0.0 0.01 0.03 0.03 97 1013.0
20260831025911 68 314 0.0 0.0 0.01 0.03 0.03 97 1012.9
20260831025439 68 314 0.0 0.0 0.00 0.02 0.02 97 1012.9
20260831024942 68 314 0.0 0.0 0.00 0.02 0.02 96 1012.8
20260831024343 68 314 0.0 0.0 0.00 0.02 0.02 96 1012.6
20260831023353 68 314 0.0 0.0 0.00 0.02 0.02 96 1012.5
20260831022918 68 314 0.0 0.0 0.00 0.02 0.02 96 1012.6
20260831022337 69 314 0.0 1.0 0.00 0.02 0.02 96 1012.6
20260831021901 69 290 0.0 1.0 0.00 0.02 0.02 96 1012.6
20260831020847 69 290 0.0 0.0 0.00 0.02 0.02 96 1012.5
20260831015843 69 290 0.0 0.0 0.00 0.02 0.02 96 1012.5
20260831014849 69 290 0.0 0.0 0.00 0.02 0.02 96 1012.4
20260831014412 69 290 0.0 0.0 0.00 0.02 0.02 96 1012.6
20260831013836 69 290 0.0 0.0 0.00 0.02 0.02 96 1012.6
20260831013402 69 290 0.0 1.0 0.00 0.02 0.02 96 1012.4
20260831012834 69 292 0.0 1.0 0.00 0.02 0.02 96 1012.2
20260831012356 69 285 0.0 0.0 0.00 0.02 0.02 96 1012.0
20260831011926 69 285 0.0 0.0 0.00 0.02 0.02 96 1012.1
20260831011407 69 286 0.0 0.0 0.00 0.02 0.02 96 1012.1
20260831010825 70 284 0.0 0.0 0.00 0.02 0.02 96 1012.2
20260831010353 70 286 0.0 0.0 0.00 0.02 0.02 95 1012.2
20260831005915 70 285 0.0 0.0 0.00 0.02 0.02 95 1012.2
20260831005337 70 286 0.0 0.0 0.00 0.02 0.02 95 1012.3
20260831004901 70 285 0.0 0.0 0.00 0.02 0.02 95 1012.1
20260831004420 70 286 0.0 1.0 0.00 0.02 0.02 95 1012.1
20260831003838 70 339 0.0 1.0 0.00 0.02 0.02 95 1012.1
20260831003402 70 337 0.0 0.0 0.00 0.02 0.02 95 1012.1
20260831002823 70 337 0.0 0.0 0.00 0.02 0.02 95 1012.2
20260831002333 71 337 0.0 0.0 0.00 0.02 0.02 94 1012.3
20260831001852 71 336 0.0 0.0 0.00 0.02 0.02 94 1012.2
20260831001411 71 337 0.0 0.0 0.00 0.02 0.02 94 1012.3
20260831000834 71 337 0.0 0.0 0.00 0.02 0.02 94 1012.4
20260831000347 71 337 0.0 0.0 0.00 0.02 0.02 94 1012.3
20260830235343 71 337 0.0 0.0 0.00 0.02 0.02 93 1012.2
20260830234343 71 336 0.0 0.0 0.00 0.02 0.02 93 1012.2
20260830233830 71 337 0.0 1.0 0.00 0.02 0.02 93 1012.1
20260830233352 71 337 0.0 1.0 0.00 0.02 0.02 93 1011.9
20260830232902 71 336 0.0 1.0 0.00 0.02 0.02 93 1011.8
20260830232324 72 282 0.0 1.0 0.00 0.02 0.02 92 1011.8
20260830231847 72 290 0.0 1.0 0.00 0.02 0.02 92 1011.8
20260830231405 72 281 0.0 2.0 0.00 0.02 0.02 92 1011.7
20260830230928 72 265 0.0 3.0 0.00 0.02 0.02 92 1011.8
20260830230427 72 175 0.0 5.0 0.00 0.08 0.02 92 1011.7
20260830225827 72 340 0.0 5.0 0.00 0.08 0.02 92 1011.7
20260830225351 72 139 0.0 2.0 0.00 0.08 0.02 92 1011.6
20260830224912 72 324 0.0 4.0 0.00 0.08 0.02 92 1011.5
20260830224332 72 314 1.0 7.0 0.00 0.08 0.02 92 1011.3
20260830223855 72 283 0.0 7.0 0.00 0.08 0.02 92 1011.3
20260830223401 72 272 0.0 7.0 0.00 0.08 0.02 92 1011.2
20260830222912 72 72 0.0 2.0 0.00 0.08 0.02 92 1011.3
20260830222420 72 56 0.0 1.0 0.00 0.08 0.02 92 1011.3
20260830221929 72 298 0.0 4.0 0.00 0.08 0.02 92 1011.5
20260830221418 72 323 0.0 4.0 0.00 0.08 0.02 92 1011.4
20260830220837 72 46 0.0 5.0 0.00 0.08 0.02 92 1011.4
20260830220347 72 18 0.0 2.0 0.00 0.20 0.02 92 1011.5
20260830215347 72 319 1.0 3.0 0.00 0.20 0.02 92 1011.7
20260830214431 72 335 0.0 3.0 0.00 0.20 0.02 91 1011.8
20260830213830 73 317 0.0 5.0 0.00 0.20 0.02 91 1011.6
20260830213355 73 326 1.0 5.0 0.00 0.20 0.02 91 1011.5
20260830212823 73 308 0.0 3.0 0.00 0.20 0.02 91 1011.5
20260830212352 73 334 0.0 3.0 0.00 0.20 0.02 91 1011.5
20260830211920 73 317 0.0 3.0 0.00 0.20 0.02 91 1011.6
20260830211325 73 316 0.0 3.0 0.00 0.20 0.02 90 1011.7
20260830210848 73 343 1.0 2.0 0.00 0.20 0.02 89 1011.6
20260830210411 74 283 0.0 3.0 0.00 0.22 0.02 89 1011.6
20260830205826 74 24 0.0 1.0 0.00 0.22 0.02 89 1011.7
20260830205351 74 314 0.0 4.0 0.00 0.22 0.02 89 1011.8
20260830204921 74 39 1.0 4.0 0.00 0.22 0.02 88 1011.8
20260830204339 74 263 0.0 5.0 0.00 0.22 0.02 89 1011.9
20260830203341 73 316 1.0 5.0 0.00 0.22 0.02 89 1011.6
20260830202907 73 123 0.0 4.0 0.00 0.22 0.02 91 1011.6
20260830202333 73 327 0.0 2.0 0.00 0.22 0.02 91 1011.6
20260830201900 72 6 0.0 1.0 0.00 0.22 0.02 93 1011.7
20260830201432 72 357 0.0 0.0 0.00 0.22 0.02 93 1011.9
20260830200936 72 357 0.0 0.0 0.00 0.22 0.02 92 1012.1
20260830200332 72 358 0.0 0.0 0.00 0.24 0.02 91 1012.2
20260830195855 72 357 0.0 0.0 0.00 0.24 0.02 91 1012.1
20260830195422 73 358 0.0 0.0 0.00 0.24 0.02 92 1012.0
20260830194823 73 357 0.0 0.0 0.00 0.24 0.02 91 1012.1
20260830194346 72 357 0.0 0.0 0.00 0.24 0.02 90 1012.1
20260830193909 72 357 0.0 1.0 0.00 0.24 0.02 90 1012.1
20260830192846 73 358 0.0 1.0 0.00 0.24 0.02 90 1012.2
20260830192407 73 357 0.0 1.0 0.00 0.24 0.02 89 1012.0
20260830191342 73 327 0.0 1.0 0.00 0.24 0.02 89 1012.0
20260830190907 73 314 0.0 1.0 0.00 0.24 0.02 88 1012.1
20260830190327 74 314 0.0 1.0 0.00 0.30 0.02 89 1012.1
20260830185857 74 314 0.0 1.0 0.00 0.30 0.02 88 1012.0
20260830185323 73 298 0.0 1.0 0.00 0.30 0.02 89 1011.9
20260830184841 73 304 0.0 1.0 0.00 0.30 0.02 89 1011.7
20260830184407 73 75 0.0 1.0 0.00 0.30 0.02 90 1011.6
20260830183343 73 319 1.0 3.0 0.00 0.30 0.02 89 1011.6
20260830182348 73 311 1.0 2.0 0.00 0.30 0.02 89 1011.7
20260830181344 73 3 1.0 4.0 0.00 0.30 0.02 88 1011.6
20260830180906 73 316 0.0 4.0 0.00 0.30 0.02 89 1011.6
20260830180327 73 84 0.0 5.0 0.00 0.34 0.02 90 1011.6
20260830175850 73 341 0.0 2.0 0.00 0.34 0.02 90 1011.7
20260830175412 72 311 0.0 3.0 0.00 0.34 0.02 90 1011.7
20260830174942 72 114 0.0 3.0 0.00 0.34 0.02 90 1011.8
20260830174342 72 310 0.0 3.0 0.00 0.34 0.02 91 1011.8
20260830173352 72 122 0.0 2.0 0.00 0.34 0.02 92 1011.6
20260830172344 71 295 0.0 4.0 0.00 0.34 0.02 92 1011.7
20260830171910 71 306 1.0 4.0 0.00 0.34 0.02 92 1011.7
20260830171327 71 237 0.0 2.0 0.00 0.34 0.02 94 1011.7
20260830170846 71 290 0.0 6.0 0.00 0.34 0.02 93 1011.8
20260830170408 70 62 1.0 6.0 0.00 0.38 0.02 93 1011.9
20260830165828 70 299 0.0 1.0 0.00 0.38 0.02 93 1011.9
20260830165352 70 304 0.0 2.0 0.00 0.38 0.02 93 1011.9
20260830164918 71 319 0.0 2.0 0.00 0.38 0.02 93 1011.9
20260830164326 70 319 0.0 2.0 0.00 0.38 0.02 94 1012.0
20260830163848 70 292 0.0 2.0 0.00 0.38 0.02 94 1012.1
20260830163417 70 319 0.0 2.0 0.00 0.38 0.02 95 1012.1
20260830162822 70 319 0.0 1.0 0.00 0.38 0.02 95 1012.1
20260830162346 70 316 0.0 1.0 0.00 0.38 0.02 95 1012.0
20260830161908 70 316 0.0 1.0 0.00 0.38 0.02 95 1012.3
20260830161417 70 316 0.0 1.0 0.00 0.38 0.02 94 1012.2
20260830160828 70 305 0.0 1.0 0.00 0.38 0.02 94 1012.3
20260830160352 70 328 0.0 0.0 0.00 0.39 0.02 96 1012.2
20260830155917 70 328 0.0 0.0 0.00 0.39 0.02 95 1012.1
20260830155346 69 328 0.0 0.0 0.00 0.39 0.02 96 1012.3
20260830154907 69 328 0.0 0.0 0.00 0.39 0.02 96 1012.2
20260830153846 69 328 0.0 0.0 0.00 0.39 0.02 96 1012.1
20260830152842 69 328 0.0 2.0 0.00 0.39 0.02 97 1012.0
20260830151847 69 357 0.0 0.0 0.00 0.39 0.02 98 1012.0
20260830151410 69 357 0.0 1.0 0.00 0.39 0.02 98 1011.9
20260830150917 68 357 0.0 1.0 0.00 0.39 0.02 98 1012.0
20260830150331 68 52 0.0 1.0 0.00 0.39 0.02 98 1012.0
20260830145857 68 188 0.0 1.0 0.00 0.39 0.02 98 1011.9
20260830145402 68 262 0.0 2.0 0.00 0.39 0.02 98 1011.7
20260830144823 68 334 0.0 1.0 0.00 0.39 0.02 98 1011.7
20260830144347 68 283 0.0 1.0 0.00 0.39 0.02 98 1011.7
20260830143916 67 283 0.0 1.0 0.00 0.39 0.02 98 1011.8
20260830143341 67 282 0.0 1.0 0.00 0.39 0.02 99 1011.8
20260830142904 67 289 0.0 1.0 0.00 0.39 0.02 99 1011.8
20260830142434 67 289 0.0 1.0 0.00 0.39 0.02 99 1011.7
20260830141826 67 289 0.0 1.0 0.00 0.39 0.02 99 1011.8
20260830141346 67 282 0.0 1.0 0.00 0.39 0.02 99 1011.8
20260830140350 67 310 0.0 0.0 0.00 0.39 0.02 99 1011.9
20260830135857 66 310 0.0 0.0 0.00 0.39 0.02 99 1011.9
20260830135526 66 310 0.0 0.0 0.00 0.39 0.02 99 1012.0
20260830134837 66 310 0.0 0.0 0.00 0.39 0.02 99 1012.1
20260830134405 66 310 0.0 0.0 0.00 0.39 0.02 99 1012.2
20260830133935 66 310 0.0 1.0 0.00 0.39 0.02 99 1012.1
20260830133337 66 310 0.0 1.0 0.00 0.39 0.02 99 1012.1
20260830132342 66 310 0.0 1.0 0.00 0.39 0.02 99 1012.0
20260830131341 65 310 0.0 0.0 0.00 0.39 0.02 99 1011.8
20260830130344 65 310 0.0 0.0 0.00 0.39 0.02 99 1011.9
20260830125914 65 310 0.0 0.0 0.00 0.39 0.02 99 1011.8
20260830125339 65 310 0.0 0.0 0.00 0.39 0.02 99 1011.8